Regional Weather Roundup
Issued by NWS Upton, NY

Current Version | Previous Version | Graphics & Text | Print | Product List | Glossary Off
Versions: 1 2 3 4 5 6 7 8 9 10 11 12 13 14 15 16 17 18 19 20 21 22 23 24 25 26 27 28 29 30 31 32 33 34 35 36 37 38 39 40 41 42 43 44 45 46 47 48 49 50

071
ASUS41 KOKX 041608
RWROKX

REGIONAL WEATHER ROUNDUP
NATIONAL WEATHER SERVICE NEW YORK NY
1100 AM EST SUN DEC 04 2016

NOTE: "FAIR" INDICATES FEW OR NO CLOUDS BELOW 12,000 FEET WITH NO
SIGNIFICANT WEATHER AND/OR OBSTRUCTIONS TO VISIBILITY.

NYZ071-072-176-178-NJZ106-104-041700-
NEW YORK CITY METRO AREA

CITY           SKY/WX    TMP DP  RH WIND       PRES   REMARKS
Central Park   SUNNY     42  22  44 VRB3      30.24F
Wall St Helipt SUNNY     45  25  45 CALM      30.24S
Bronx Bot Gard   N/A     43  23  45 NW9       30.23F
LaGuardia APRT MOSUNNY   44  23  43 NW14      30.22F
Kennedy INTL   MOSUNNY   44  21  40 NW17G23   30.23F
Breezy Point     N/A     41 N/A N/A NW13G20     N/A
Newark/Liberty MOSUNNY   44  23  43 NW14      30.23S
Teterboro      SUNNY     43  22  43 N10       30.22F
$$

NYZ177-179-078>081-041700-
LONG ISLAND NEW YORK

CITY           SKY/WX    TMP DP  RH WIND       PRES   REMARKS
Jones Beach      N/A     41 N/A N/A NW13        N/A
Matinecock PT  NOT AVBL
Farmingdale    SUNNY     41  22  46 N14       30.22S
MacArthur/ISP  MOSUNNY   41  24  51 N12       30.20F
Shirley        SUNNY     40  24  53 NW14G22   30.21F WCI  32
Westhampton    SUNNY     40  22  48 N13       30.21F WCI  32
Southampton      N/A     39  27  60 N9        30.17F WCI  33
Bridgehampton  NOT AVBL
East Hampton     N/A     38  20  48 NW10G17   30.19F WCI  31
Montauk          N/A     39  21  48 NW10      30.20F WCI  32
$$

NYZ052-065-067-041700-
HUDSON VALLEY

CITY           SKY/WX    TMP DP  RH WIND       PRES   REMARKS
White Plains   SUNNY     40  21  46 NW14      30.20F WCI  32
Newburgh       SUNNY     37  25  60 CALM      30.24
Montgomery     SUNNY     41  23  48 NE3       30.21F
Poughkeepsie   SUNNY     38  22  52 N6        30.23F WCI  33
Albany         CLOUDY    34  20  56 W7        30.28R WCI  28
$$

NJZ001-105-106-008-010-013-015-019>022-104-041700-
NEW JERSEY

CITY           SKY/WX    TMP DP  RH WIND       PRES   REMARKS
Newark/Liberty MOSUNNY   44  23  43 NW14      30.23S
Teterboro      SUNNY     43  22  43 N10       30.22F
Caldwell       SUNNY     43  23  45 VRB6      30.23F
Somerville     SUNNY     44  23  43 VRB7G20   30.22F
Linden           N/A     44  24  45 N9G18     30.24S
Sussex         SUNNY     42  24  49 VRB7      30.21F
Andover          N/A     42  23  46 VRB6      30.22S
Trenton        SUNNY     45  25  45 N7        30.23F
Millville      MOSUNNY   47  28  47 NW6       30.26S
Atlantic City  SUNNY     47  25  42 NW15      30.24F
Wrightstown    NOT AVBL
Toms River     MOSUNNY   45  26  47 NW9       30.24S
Belmar         SUNNY    N/A N/A N/A NW14      30.23F
$$

PAZ047>061-062-071-041700-
EASTERN PENNSYLVANIA

CITY           SKY/WX    TMP DP  RH WIND       PRES   REMARKS
Philadelphia   PTSUNNY   46  25  43 N10       30.26S
Allentown      SUNNY     44  25  47 NW8       30.24S
Scranton       MOSUNNY   40  24  53 N8        30.23S WCI  34
$$

CTZ002-004>006-009-010-012-RIZ004-006-007-MAZ004-011-015-041700-
SOUTHERN NEW ENGLAND
 IN CT

CITY           SKY/WX    TMP DP  RH WIND       PRES   REMARKS
Bradley INTL   MOSUNNY   39  19  44 NW12      30.21F WCI  32
Hartford       SUNNY     39  21  48 NW8       30.22S WCI  33
Danbury        SUNNY     38  21  50 NW8G16    30.21F WCI  32
Wtrbury/Oxford MOSUNNY   36  18  48 MISG      30.20F
Bridgeport     SUNNY     42  22  44 NW16G22   30.21F
Meriden        SUNNY     41  20  43 NW13      30.20F
New Haven      SUNNY     40  20  44 NW13      30.20F WCI  32
Chester          N/A     37  19  48 N14G21    30.18F WCI  29
Groton         SUNNY     42  22  44 N13       30.19F
Wilimantic     SUNNY     40  21  46 NW12      30.20F WCI  33

 IN RI

CITY           SKY/WX    TMP DP  RH WIND       PRES   REMARKS
Providence     PTSUNNY   39  21  48 N13       30.19S WCI  31
Block Island   MOSUNNY   38  24  57 N9          N/A  WCI  31
Westerly       PTSUNNY   40  20  44 N10       30.20F WCI  33
 IN MA

CITY           SKY/WX    TMP DP  RH WIND       PRES   REMARKS
Boston         MOSUNNY   38  21  50 NW13      30.17F WCI  30
Worcester      MOSUNNY   32  18  56 N13       30.14F WCI  22
Westfield      SUNNY     38  21  50 N9        30.20F WCI  31
Provincetown   CLOUDY    37  24  59 NW14      30.16F WCI  28
Nantucket      SUNNY     41  26  55 NW18      30.14F
$$

ANZ330-335-338-340-345-350-353-355-041700-
COASTAL MARINE OBSERVATIONS


STATION/POSITION TIME  SKY/WX   TEMP    WIND        PRES    VSBY  WAVE
                                AIR SEA DIR/SP/G                  HT/PER
                 (UTC)          (F)     (DEG/KT/KT) (MB)    (MI)  (FT/S)
NY HARB ENTRANCE 1450            42 53  330/ 16/ 19 1023.2          3/ 4
20 S FIRE ISLAND 1450            41 53  340/ 14/ 16 1023.0          3/ 5
GREAT SOUTH BAY  1530            39 44                N/A
23 SSW MONTAUK P 1450            38 55  320/ 14/ 17 1023.3          3/ 4
15 E BARNEGAT LI 1530               54                N/A           4/ 5
HUDSON CANYON    1450            44 58              1022.7          5/ 6
KINGS POINT      1530            40 47              1023.4
EXECUTION ROCKS  1545            42     330/ 12/ 16   N/A
CENTRAL LI SOUND 1530            38 51  340/ 12/ 16   N/A           1/ 3
EASTERN LI SOUND NOT AVBL
ROBBINS REEF     1530            41     340/ 14/ 16 1023.8
$$


>>>>>>>>>>>>>>>>>>>>>>>>>>>> KEY <<<<<<<<<<<<<<<<<<<<<<<<<<<
>                                                          <
>     SKY/WX - Sky Condition/Present Weather               <
>     TMP    - Temperature in Fahrenheit                   <
>     DP     - Dew Point in Fahrenheit                     <
>     RH     - Relative Humidity in Percent                <
>     WIND   - Direction (from) and Speed in MPH           <
>     PRES   - Mean Sea Level Pressure (inches of Hg)      <
>     WCI    - Wind Chill Index                            <
>     VSB    - VISIBILITY IN MILES                         <
>     HX     - HEAT INDEX                                  <
>     TC     - TEMPERATURE IN CELSIUS                      <
>     VRB    - VARIABLE WIND DIRECTION                     <
>                                                          <
>>>>>>>>>>>>>>>>>>>>>>>>>>>> KEY <<<<<<<<<<<<<<<<<<<<<<<<<<<




USA.gov is the U.S. government's official web portal to all federal, state and local government web resources and services.